Snowfall_Accumulation
0.0 0.0 0.0 0.0 0.0 0.0 0.0 0.0 0.0 0.0 0.0 0.0 0.0 0.0 0.0 0.0 0.0 0.0 0.0 0.0 0.0 0.0 0.0 0.0 0.0 0.0 0.0 0.0 0.0 0.0 0.0 0.0 0.0 0.0 0.0 0.0 0.0 0.0 0.0 0.0 0.0 0.0 0.0 0.0 0.0 0.0 0.0 0.0 0.0 0.0 0.0 0.0 0.0 0.0
0.0 0.0 0.0 0.0 0.0 0.0 0.0 0.0 0.0 0.0 0.0 0.0 0.0 0.0 0.0 0.0 0.0 0.0 0.0 0.0 0.0 0.0 0.0 0.0 0.0 0.0 0.0 0.0 0.0 0.0 0.0 0.0 0.0 0.0 0.0 0.0 0.0 0.0 0.0 0.0 0.0 0.0 0.0 0.0 0.0 0.0 0.0 0.0 0.0 0.0 0.0 0.0 0.0 0.0
0.0 0.0 0.0 0.0 0.0 0.0 0.0 0.0 0.0 0.0 0.0 0.0 0.0 0.0 0.0 0.0 0.0 0.0 0.0 0.0 0.0 0.0 0.0 0.0 0.0 0.0 0.0 0.0 0.0 0.0 0.0 0.0 0.0 0.0 0.0 0.0 0.0 0.0 0.0 0.0 0.0 0.0 0.0 0.0 0.0 0.0 0.0 0.0 0.0 0.0 0.0 0.0 0.0 0.0
0.0 0.0 0.0 0.0 0.0 0.0 0.0 0.0 0.0 0.0 0.0 0.0 0.0 0.0 0.0 0.0 0.0 0.0 0.0 0.0 0.0 0.0 0.0 0.0 0.0 0.0 0.0 0.0 0.0 0.0 0.0 0.0 0.0 0.0 0.0 0.0 0.0 0.0 0.0 0.0 0.0 0.0 0.0 0.0 0.0 0.0 0.0 0.0 0.0 0.0 0.0 0.0 0.0 0.0
0.0 0.0 0.0 0.0 0.0 0.0 0.0 0.0 0.0 0.0 0.0 0.0 0.0 0.0 0.0 0.0 0.0 0.0 0.0 0.0 0.0 0.0 0.0 0.0 0.0 0.0 0.0 0.0 0.0 0.0 0.0 0.0 0.0 0.0 0.0 0.0 0.0 0.0 0.0 0.0 0.0 0.0 0.0 0.0 0.0 0.0 0.0 0.0 0.0 0.0 0.0 0.0 0.0 0.0
0.0 0.0 0.0 0.0 0.0 0.0 0.0 0.0 0.0 0.0 0.0 0.0 0.0 0.0 0.0 0.0 0.0 0.0 0.0 0.0 0.0 0.0 0.0 0.0 0.0 0.0 0.0 0.0 0.0 0.0 0.0 0.0 0.0 0.0 0.0 0.0 0.0 0.0 0.0 0.0 0.0 0.0 0.0 0.0 0.0 0.0 0.0 0.0 0.0 0.0 0.0 0.0 0.0 0.0
0.0 0.0 0.0 0.0 0.0 0.0 0.0 0.0 0.0 0.0 0.0 0.0 0.0 0.0 0.0 0.0 0.0 0.0 0.0 0.0 0.0 0.0 0.0 0.0 0.0 0.0 0.0 0.0 0.0 0.0 0.0 0.0 0.0 0.0 0.0 0.0 0.0 0.0 0.0 0.0 0.0 0.0 0.0 0.0 0.0 0.0 0.0 0.0 0.0 0.0 0.0 0.0 0.0 0.0
0.0 0.0 0.0 0.0 0.0 0.0 0.0 0.0 0.0 0.0 0.0 0.0 0.0 0.0 0.0 0.0 0.0 0.0 0.0 0.0 0.0 0.0 0.0 0.0 0.0 0.0 0.0 0.0 0.0 0.0 0.0 0.0 0.0 0.0 0.0 0.0 0.0 0.0 0.0 0.0 0.0 0.0 0.0 0.0 0.0 0.0 0.0 0.0 0.0 0.0 0.0 0.0 0.0 0.0
0.0 0.0 0.0 0.0 0.0 0.0 0.0 0.0 0.0 0.0 0.0 0.0 0.0 0.0 0.0 0.0 0.0 0.0 0.0 0.0 0.0 0.0 0.0 0.0 0.0 0.0 0.0 0.0 0.0 0.0 0.0 0.0 0.0 0.0 0.0 0.0 0.0 0.0 0.0 0.0 0.0 0.0 0.0 0.0 0.0 0.0 0.0 0.0 0.0 0.0 0.0 0.0 0.0 0.0
0.0 0.0 0.0 0.0 0.0 0.0 0.0 0.0 0.0 0.0 0.0 0.0 0.0 0.0 0.6 0.0 0.0 0.0 0.0 0.0 0.5 0.1 0.0 0.1 0.0 0.0 0.0 0.0 0.0 0.0 0.0 0.0 0.0 0.0 0.0 0.0 0.0 0.0 0.0 0.0 0.0 0.0 0.0 0.0 0.0 0.0 0.0 0.0 0.0 0.0 0.0 0.0 0.0 0.0
0.0 0.0 0.0 0.0 0.0 0.0 0.0 0.0 0.0 0.0 0.0 0.0 0.0 0.3 0.0 0.0 0.0 0.0 2.0 1.5 0.3 0.4 0.0 0.0 0.0 0.0 0.0 0.0 0.0 0.0 0.0 0.0 0.0 0.0 0.0 0.0 0.0 0.0 0.0 0.0 0.0 0.0 0.0 0.0 0.0 0.0 0.0 0.0 0.0 0.0 0.0 0.0 0.0 0.0
0.0 0.0 0.0 0.0 0.0 0.0 0.0 0.0 0.0 0.0 0.0 0.0 0.0 0.0 0.0 2.6 4.1 4.1 2.3 0.4 0.2 0.0 0.0 0.0 0.0 0.0 0.0 0.0 0.0 0.1 0.0 0.0 0.0 0.0 0.0 0.0 0.0 0.0 0.0 0.0 0.0 0.0 0.0 0.0 0.0 0.0 0.0 0.0 0.0 0.0 0.0 0.0 0.0 0.0
0.0 0.0 0.0 0.0 0.0 0.0 0.0 0.0 0.0 0.0 0.0 0.0 1.5 9.0 6.6 5.4 6.8 4.3 0.8 0.2 0.1 0.0 0.0 0.0 0.0 0.0 0.0 0.0 0.1 0.0 0.2 0.1 0.0 0.0 0.0 0.0 0.0 0.0 0.0 0.0 0.0 0.0 0.0 0.0 0.0 0.0 0.0 0.0 0.0 0.0 0.0 0.0 0.0 0.0
0.0 0.0 0.0 0.0 0.0 0.0 0.0 0.0 0.0 0.0 0.0 2.3 14.0 15.9 6.5 3.5 0.0 0.0 0.0 0.0 0.0 0.0 0.0 0.0 0.0 0.0 0.0 0.3 0.2 0.0 0.0 0.0 0.0 0.0 0.0 0.0 0.0 0.0 0.0 0.0 0.0 0.0 0.0 0.0 0.0 0.0 0.0 0.0 0.0 0.0 0.0 0.0 0.0 0.0
0.0 0.0 0.0 0.0 0.0 0.0 0.0 0.0 0.0 0.0 0.0 15.1 11.0 6.8 0.7 0.0 0.0 0.0 0.0 0.0 0.0 0.0 0.0 0.0 0.0 0.0 0.0 0.7 0.3 0.1 0.0 0.0 0.0 0.0 0.0 0.0 0.0 0.0 0.0 0.0 0.0 0.0 0.0 0.0 0.0 0.0 0.0 0.0 0.0 0.0 0.0 0.0 0.0 0.0
0.0 0.0 0.0 0.0 0.0 0.0 0.0 0.0 0.0 0.0 1.1 15.2 10.4 2.5 0.0 0.0 0.0 0.0 0.0 0.0 0.0 0.0 0.0 0.2 0.5 0.8 0.5 0.3 0.1 0.0 0.0 0.0 0.0 0.1 0.0 0.0 0.0 0.0 0.0 0.0 0.0 0.0 0.0 0.0 0.0 0.0 0.0 0.0 0.0 0.0 0.0 0.0 0.0 0.0
0.0 0.0 0.0 0.0 0.0 0.0 0.0 0.0 0.0 18.1 21.1 17.7 5.7 0.0 0.0 0.0 0.0 0.0 0.0 0.0 0.0 0.0 0.5 0.8 1.6 0.4 0.3 0.1 0.0 0.0 0.0 0.0 0.0 0.0 0.0 0.0 0.0 0.0 0.0 0.0 0.0 0.0 0.0 0.0 0.0 0.0 0.0 0.0 0.0 0.0 0.0 0.0 0.0 0.0
0.0 0.0 0.0 0.0 0.0 0.0 0.0 0.0 13.6 22.0 23.5 8.3 1.4 0.0 0.0 0.0 0.0 0.0 0.1 0.1 0.0 0.4 0.8 1.3 1.1 1.3 0.4 0.0 0.0 0.0 0.0 0.0 0.0 0.0 0.0 0.0 0.0 0.0 0.0 0.0 0.0 0.0 0.0 0.0 0.0 0.0 0.0 0.0 0.0 0.0 0.0 0.0 0.0 0.0
0.0 0.0 0.0 0.0 0.0 0.0 12.2 24.4 18.3 20.5 7.7 1.6 0.0 0.0 0.0 0.0 0.0 0.0 0.0 0.0 0.0 0.1 0.7 2.5 3.1 1.8 0.0 0.0 0.0 0.0 0.0 0.0 0.0 0.0 0.0 0.0 0.0 0.0 0.0 0.0 0.0 0.0 0.0 0.0 0.0 0.0 0.0 0.0 0.0 0.0 0.0 0.0 0.0 0.0
0.0 0.0 0.0 0.0 0.0 10.4 22.7 21.1 14.3 9.8 5.8 0.8 0.0 0.0 0.0 0.0 0.0 0.0 0.0 0.5 2.3 4.5 7.0 5.5 0.0 0.0 0.0 0.0 0.0 0.0 0.0 0.0 0.0 0.0 0.0 0.0 0.0 0.0 0.0 0.0 0.0 0.0 0.0 0.0 0.0 0.0 0.0 0.0 0.0 0.0 0.0 0.0 0.0 0.0
0.0 0.0 0.0 0.0 6.0 11.7 14.7 11.7 9.8 5.4 2.7 0.7 0.0 0.0 0.1 0.0 0.0 0.6 1.1 1.2 6.1 9.3 4.7 0.0 0.0 0.0 0.0 0.0 0.0 0.0 0.0 0.0 0.0 0.0 0.0 0.0 0.0 0.0 0.0 0.0 0.0 0.0 0.0 0.0 0.0 0.1 0.1 0.1 0.0 0.0 0.1 0.0 0.0 0.2
0.0 0.0 0.0 8.7 25.6 23.0 15.5 7.5 3.4 2.4 1.0 0.7 0.1 0.1 1.1 1.6 1.1 0.6 0.9 5.8 5.1 0.1 0.0 0.0 0.0 0.0 0.0 0.0 0.0 0.0 0.0 0.0 0.0 0.0 0.0 0.0 0.0 0.0 0.0 0.0 0.0 0.0 0.0 0.0 0.0 0.1 0.2 0.3 0.1 0.7 0.3 0.0 0.0 0.6
0.0 0.0 16.4 19.5 24.5 21.6 16.6 6.0 3.3 2.3 0.9 1.5 0.9 1.8 2.6 0.9 0.0 0.5 4.1 2.3 0.5 0.0 0.0 0.0 0.0 0.0 0.0 0.0 0.0 0.0 0.0 0.0 0.0 0.0 0.0 0.0 0.0 0.0 0.0 0.0 0.0 0.0 0.0 0.0 0.1 0.2 0.1 0.4 1.1 1.3 0.7 0.1 0.9 0.7
0.0 14.2 19.6 20.9 16.6 15.2 10.8 10.3 5.9 3.6 2.9 2.6 3.0 2.7 2.4 0.3 1.9 3.0 2.4 0.1 0.0 0.0 0.0 0.0 0.0 0.1 0.1 0.0 0.0 0.0 0.0 0.0 0.0 0.0 0.1 0.1 0.0 0.0 0.0 0.0 0.0 0.0 0.0 0.3 0.4 0.5 0.5 1.3 1.2 0.9 0.6 1.1 0.9 0.6
19.3 24.1 17.4 19.9 12.0 6.8 3.9 3.3 1.6 1.2 0.7 0.9 0.9 1.7 1.7 1.6 2.9 2.8 0.2 0.0 0.0 0.0 0.0 0.0 0.1 0.0 0.1 0.1 0.0 0.0 0.1 0.0 0.0 0.0 0.1 0.1 0.0 0.0 0.4 0.1 0.0 0.0 0.2 0.3 0.3 0.6 1.1 1.5 1.1 0.9 0.6 1.1 0.9 0.5
21.0 13.9 9.7 6.3 3.2 0.5 0.3 0.1 0.1 0.1 0.1 1.0 0.4 1.2 1.0 1.6 3.3 0.9 0.0 0.0 0.0 0.0 0.0 0.0 0.0 0.1 0.1 0.0 0.0 0.1 0.1 0.0 0.0 0.0 0.2 0.1 0.0 0.0 0.1 0.1 0.0 0.0 0.0 0.1 0.1 0.4 0.3 1.1 0.9 0.7 0.4 0.8 0.7 0.8
11.9 8.2 4.0 1.7 0.7 0.0 0.1 0.0 0.0 0.0 0.0 0.8 1.3 1.3 0.6 3.3 0.4 0.0 0.0 0.0 0.0 0.0 0.0 0.0 0.3 0.0 0.0 0.2 0.1 0.0 0.1 0.0 0.0 0.0 0.1 0.0 0.0 0.0 0.0 0.0 0.1 0.0 0.4 0.5 0.3 0.1 0.5 0.7 0.6 0.4 0.8 0.7 0.8 0.5
3.4 1.3 0.3 0.0 0.0 0.0 0.6 0.3 0.1 0.0 0.4 0.3 0.2 0.8 0.2 0.0 0.0 0.0 0.0 0.0 0.0 0.0 0.9 0.9 0.6 0.3 0.1 0.1 0.0 0.1 0.0 0.1 0.4 0.2 0.1 0.0 0.7 0.5 0.3 0.2 0.1 0.0 1.0 0.5 0.1 0.0 0.4 0.4 0.3 0.2 0.6 0.6 0.5 0.4
0.2 0.4 0.1 0.0 0.0 0.8 0.9 0.5 0.1 0.1 0.0 0.0 0.0 0.3 0.2 0.0 0.0 0.0 0.0 0.1 0.5 0.9 0.7 0.5 0.2 0.0 0.0 0.7 0.4 0.1 0.0 0.0 0.3 0.1 0.0 0.0 0.0 0.2 0.2 0.2 0.0 1.0 0.8 0.3 0.1 0.0 0.4 0.3 0.2 0.8 0.7 0.7 0.4 1.1
0.1 0.1 0.4 0.4 0.3 0.3 0.0 0.0 0.2 0.2 0.1 0.2 0.1 0.1 0.0 0.0 0.0 0.1 0.2 0.5 0.8 0.7 0.2 0.0 0.0 0.0 0.4 0.3 0.8 0.8 0.6 0.2 0.1 0.1 0.2 0.2 0.2 0.3 0.3 0.2 0.9 0.8 0.6 0.3 0.8 0.8 0.8 1.1 1.1 1.4 1.4 1.6 1.6 1.5
0.3 0.2 0.2 0.3 0.8 0.5 0.4 0.6 0.8 2.5 1.3 0.8 0.1 0.0 0.0 0.5 1.0 1.1 1.3 1.9 1.7 1.0 1.9 2.9 2.8 2.1 1.6 1.3 1.0 0.8 1.0 0.8 0.2 0.2 0.1 0.5 0.7 0.6 0.3 1.2 1.0 1.3 1.5 1.1 1.1 0.7 1.1 1.1 0.9 0.8 0.9 1.2 1.2 0.9
0.8 0.7 1.2 1.1 1.7 1.9 2.1 2.0 1.8 3.3 4.1 4.4 3.1 2.7 2.5 2.5 2.9 3.2 3.1 2.5 2.6 2.3 1.6 2.0 0.9 2.6 2.5 2.5 2.2 1.9 0.5 1.3 1.2 1.0 1.0 0.6 0.4 1.1 1.2 0.9 1.2 1.2 1.1 1.2 1.1 1.1 1.0 1.2 1.5 1.5 1.2 1.0 0.9 0.7
2.1 1.7 1.6 1.6 1.1 3.7 2.3 3.3 3.2 3.6 3.6 3.8 3.7 3.2 2.5 2.0 1.6 1.6 2.1 2.0 3.2 2.6 2.3 2.2 2.7 2.7 1.6 2.6 2.2 2.1 2.0 1.8 1.4 1.5 1.0 0.2 0.8 0.7 0.7 1.1 1.0 1.2 1.1 1.1 1.4 1.4 1.7 1.7 1.6 1.5 1.2 1.0 0.9 1.0